Regional Weather Roundup
Issued by NWS Sioux Falls, SD

Home | Current Version | Previous Version | Graphics & Text | Print | Product List | Glossary Off
Versions: 1 2 3 4 5 6 7 8 9 10 11 12 13 14 15 16 17 18 19 20 21 22 23 24 25 26 27 28 29 30 31 32 33 34 35 36 37 38 39 40 41 42 43 44 45 46 47 48 49 50

000
ASUS43 KFSD 240602
RWRFSD

WEATHER ROUNDUP FOR SE SOUTH DAKOTA/SW MINNESOTA/NW IOWA
NATIONAL WEATHER SERVICE SIOUX FALLS SD
1200 AM CST TUE JAN 24 2017

NOTE: "FAIR" INDICATES FEW OR NO CLOUDS BELOW 12,000 FEET WITH NO
SIGNIFICANT WEATHER AND OR OBSTRUCTIONS TO VISIBILITY.


SDZ038>040-050-052>070-240700-
SOUTHEAST SOUTH DAKOTA

CITY           SKY/WX    TMP DP  RH WIND       PRES   REMARKS
BROOKINGS      CLOUDY    30  27  88 SE6       29.80F WCI  24
CHAMBERLAIN    CLOUDY    32  31  96 E6        29.76S WCI  26
6HR MIN TEMP:  32; 6HR MAX TEMP:  32;

HURON          CLOUDY    31  29  92 SE3       29.80F
6HR MIN TEMP:  31; 6HR MAX TEMP:  31;

MADISON        CLOUDY    28  28 100 SE12        N/A  WCI  18
MITCHELL       CLOUDY    32  29  88 SE6       29.81R WCI  26
6HR MIN TEMP:  31; 6HR MAX TEMP:  32;

SIOUX FALLS    CLOUDY    32  30  92 SE8       29.81S WCI  25
6HR MIN TEMP:  31; 6HR MAX TEMP:  32;

WINNER         CLOUDY    32  30  92 E7        29.73R WCI  26
YANKTON        CLOUDY    30  28  93 E6        29.79S WCI  24
$$

MNZ071-072-080-081-089-090-097-098-240700-
SOUTHWEST MINNESOTA

CITY           SKY/WX    TMP DP  RH WIND       PRES   REMARKS
FAIRMONT       CLOUDY    31  29  92 CALM      29.86S
JACKSON        CLOUDY    30  28  93 CALM      29.85R
MARSHALL       CLOUDY   N/A N/A N/A SE3       29.85R
MONTEVIDEO     CLOUDY    30  30 100 CALM      29.87R
PIPESTONE      CLOUDY    30  28  93 S7        29.80F WCI  23
REDWOOD FALLS  CLOUDY    33  26  75 CALM      29.85S
TRACY          CLOUDY    32  29  90 SE5       29.84R WCI  27
WINDOM         CLOUDY    30  28  93 S5        29.84S WCI  25
WORTHINGTON    CLOUDY    30  29  96 SE7       29.82F WCI  23
$$

IAZ001>003-012>014-020>022-031-032-NEZ013-014-SDZ071-240700-
NORTHWEST IOWA

CITY           SKY/WX    TMP DP  RH WIND       PRES   REMARKS
CHEROKEE       CLOUDY    32  31  96 CALM      29.84F
DENISON        CLOUDY    32  28  86 SE9       29.82S WCI  24
ESTHERVILLE    CLOUDY    31  30  96 S3        29.84F
LE MARS        CLOUDY    32  30  93 SE7       29.84F WCI  26
ORANGE CITY    CLOUDY    30  30 100 SE6       29.82F WCI  24
SHELDON        CLOUDY    32  32 100 SE9       29.82S WCI  24
SIOUX CITY     CLOUDY    33  30  88 SE8       29.83F WCI  26
6HR MIN TEMP:  32; 6HR MAX TEMP:  34;

SPENCER        CLOUDY    32  30  92 SE3       29.84F
6HR MIN TEMP:  32; 6HR MAX TEMP:  32;

STORM LAKE     CLOUDY    32  30  93 SE3       29.84S
$$

ABBREVIATIONS USED IN REMARKS
   TC - TEMPERATURE IN CELSIUS
  WCI - WIND CHILL INDEX
   HX - HEAT INDEX
  VSB - VISIBILITY




USA.gov is the U.S. government's official web portal to all federal, state and local government web resources and services.